Time,TemperatureF,DewpointF,PressureIn,WindDirection,WindDirectionDegrees,WindSpeedMPH,WindSpeedGustMPH,Humidity,HourlyPrecipIn,Conditions,Clouds,dailyrainin,SoftwareType,DateUTC
2013-04-30 00:00:00,64.0,62.8,30.01,SSW,205,0.0,0.0,96,0.00,CLR,,0.00,WeatherDisplay:10.37,2013-04-30 04:00:00,
2013-04-30 00:01:00,64.0,62.8,30.01,SSW,205,0.0,0.0,96,0.00,CLR,,0.00,WeatherDisplay:10.37,2013-04-30 04:01:00,
2013-04-30 00:02:00,64.0,62.8,30.01,SSW,205,0.0,0.0,96,0.00,CLR,,0.00,WeatherDisplay:10.37,2013-04-30 04:02:00,
2013-04-30 00:07:00,63.9,62.7,30.01,SSW,205,0.0,0.0,96,0.00,CLR,,0.00,WeatherDisplay:10.37,2013-04-30 04:07:00,
2013-04-30 00:12:00,63.8,62.6,30.01,SSW,205,0.0,0.0,96,0.00,CLR,,0.00,WeatherDisplay:10.37,2013-04-30 04:12:00,
2013-04-30 00:18:00,63.7,62.5,30.01,SSW,205,0.0,0.0,96,0.00,CLR,,0.00,WeatherDisplay:10.37,2013-04-30 04:18:00,
2013-04-30 00:23:00,63.6,62.4,30.01,SSW,205,0.0,0.0,96,0.00,CLR,,0.00,WeatherDisplay:10.37,2013-04-30 04:23:00,
2013-04-30 00:28:00,63.6,62.4,30.01,SSW,205,0.0,0.0,96,0.00,CLR,,0.00,WeatherDisplay:10.37,2013-04-30 04:28:00,
2013-04-30 00:33:00,63.5,62.3,30.01,SSW,205,0.0,0.0,96,0.00,CLR,,0.00,WeatherDisplay:10.37,2013-04-30 04:33:00,
2013-04-30 00:38:00,63.5,62.3,30.01,SSW,205,0.3,2.3,96,0.00,CLR,,0.00,WeatherDisplay:10.37,2013-04-30 04:38:00,
2013-04-30 00:44:00,63.5,62.3,30.01,SSW,205,1.7,3.5,96,0.00,CLR,,0.00,WeatherDisplay:10.37,2013-04-30 04:44:00,
2013-04-30 00:49:00,63.6,62.7,30.01,SSW,205,0.0,0.0,97,0.00,CLR,,0.00,WeatherDisplay:10.37,2013-04-30 04:49:00,
2013-04-30 00:54:00,63.6,62.7,30.01,SSW,205,0.0,0.0,97,0.00,CLR,,0.00,WeatherDisplay:10.37,2013-04-30 04:54:00,
2013-04-30 00:59:00,63.6,62.7,30.01,SSW,205,1.1,3.5,97,0.00,CLR,,0.00,WeatherDisplay:10.37,2013-04-30 04:59:00,
2013-04-30 01:04:00,63.6,62.7,30.01,SSW,194,1.4,4.6,97,0.00,CLR,,0.00,WeatherDisplay:10.37,2013-04-30 05:04:00,
2013-04-30 01:10:00,63.8,62.9,30.01,SSW,194,2.3,3.5,97,0.00,CLR,,0.00,WeatherDisplay:10.37,2013-04-30 05:10:00,
2013-04-30 01:15:00,63.9,63.0,30.01,SSW,193,3.0,7.0,97,0.00,CLR,,0.00,WeatherDisplay:10.37,2013-04-30 05:15:00,
2013-04-30 01:20:00,64.0,63.1,30.01,SSW,196,2.0,6.0,97,0.00,CLR,,0.00,WeatherDisplay:10.37,2013-04-30 05:20:00,
2013-04-30 01:25:00,64.0,63.1,30.01,SSW,200,2.9,3.5,97,0.00,CLR,,0.00,WeatherDisplay:10.37,2013-04-30 05:25:00,
2013-04-30 01:30:00,63.9,63.0,30.00,SSE,162,2.1,3.5,97,0.00,CLR,,0.00,WeatherDisplay:10.37,2013-04-30 05:30:00,
2013-04-30 01:35:00,63.9,63.0,30.00,SSW,194,2.4,3.5,97,0.00,CLR,,0.00,WeatherDisplay:10.37,2013-04-30 05:35:00,
2013-04-30 01:40:00,63.8,62.9,30.01,SSW,194,0.0,2.3,97,0.00,CLR,,0.00,WeatherDisplay:10.37,2013-04-30 05:40:00,
2013-04-30 01:46:00,63.8,62.9,30.01,SSW,194,0.9,2.0,97,0.00,CLR,,0.00,WeatherDisplay:10.37,2013-04-30 05:46:00,
2013-04-30 01:51:00,63.9,63.0,30.01,NW,311,2.5,3.5,97,0.00,CLR,,0.00,WeatherDisplay:10.37,2013-04-30 05:51:00,
2013-04-30 01:56:00,63.9,63.0,30.01,NW,311,3.4,3.5,97,0.00,CLR,,0.00,WeatherDisplay:10.37,2013-04-30 05:56:00,
2013-04-30 02:01:00,63.9,63.0,30.01,NW,311,1.3,2.3,97,0.00,CLR,,0.00,WeatherDisplay:10.37,2013-04-30 06:01:00,
2013-04-30 02:06:00,63.8,62.9,30.00,NW,311,0.0,0.0,97,0.00,CLR,,0.00,WeatherDisplay:10.37,2013-04-30 06:06:00,
2013-04-30 02:11:00,63.8,62.9,30.00,NW,311,0.0,0.0,97,0.00,CLR,,0.00,WeatherDisplay:10.37,2013-04-30 06:11:00,
2013-04-30 02:16:00,63.7,62.8,30.00,NW,311,1.2,2.0,97,0.00,CLR,,0.00,WeatherDisplay:10.37,2013-04-30 06:16:00,
2013-04-30 02:21:00,63.7,62.8,30.00,NW,311,2.1,3.5,97,0.00,CLR,,0.00,WeatherDisplay:10.37,2013-04-30 06:21:00,
2013-04-30 02:27:00,63.6,62.7,30.00,NW,311,2.3,3.5,97,0.00,CLR,,0.00,WeatherDisplay:10.37,2013-04-30 06:27:00,
2013-04-30 02:32:00,63.5,62.6,30.00,NW,311,2.0,3.5,97,0.00,CLR,,0.00,WeatherDisplay:10.37,2013-04-30 06:32:00,
2013-04-30 02:37:00,63.5,62.6,30.00,NW,311,2.0,2.3,97,0.00,CLR,,0.00,WeatherDisplay:10.37,2013-04-30 06:37:00,
2013-04-30 02:42:00,63.4,62.5,30.00,NW,311,0.0,1.0,97,0.00,CLR,,0.00,WeatherDisplay:10.37,2013-04-30 06:42:00,
2013-04-30 02:47:00,63.4,62.5,29.99,NW,311,0.0,0.0,97,0.00,CLR,,0.00,WeatherDisplay:10.37,2013-04-30 06:47:00,
2013-04-30 02:52:00,63.3,62.4,29.99,NW,311,0.6,1.1,97,0.00,CLR,,0.00,WeatherDisplay:10.37,2013-04-30 06:52:00,
2013-04-30 02:57:00,63.2,62.3,30.00,NW,311,0.4,1.1,97,0.00,CLR,,0.00,WeatherDisplay:10.37,2013-04-30 06:57:00,
2013-04-30 03:02:00,63.2,62.3,30.00,NW,311,1.6,3.5,97,0.00,CLR,,0.00,WeatherDisplay:10.37,2013-04-30 07:02:00,
2013-04-30 03:08:00,63.2,62.3,30.00,NW,311,1.9,3.5,97,0.00,CLR,,0.00,WeatherDisplay:10.37,2013-04-30 07:08:00,
2013-04-30 03:13:00,63.2,62.3,29.99,NW,311,2.1,3.5,97,0.00,CLR,,0.00,WeatherDisplay:10.37,2013-04-30 07:13:00,
2013-04-30 03:18:00,63.2,62.3,30.00,NW,311,1.3,2.3,97,0.00,CLR,,0.00,WeatherDisplay:10.37,2013-04-30 07:18:00,
2013-04-30 03:23:00,63.1,62.2,30.00,NW,311,0.7,2.3,97,0.00,CLR,,0.00,WeatherDisplay:10.37,2013-04-30 07:23:00,
2013-04-30 03:28:00,63.0,62.1,30.00,NW,311,0.0,0.0,97,0.00,CLR,,0.00,WeatherDisplay:10.37,2013-04-30 07:28:00,
2013-04-30 03:34:00,63.0,62.1,30.00,NW,311,0.5,2.0,97,0.00,CLR,,0.00,WeatherDisplay:10.37,2013-04-30 07:34:00,
2013-04-30 03:39:00,63.2,62.6,30.00,NNW,332,2.8,3.5,98,0.00,CLR,,0.00,WeatherDisplay:10.37,2013-04-30 07:39:00,
2013-04-30 03:44:00,63.2,62.6,30.00,NNW,332,3.0,3.5,98,0.00,CLR,,0.00,WeatherDisplay:10.37,2013-04-30 07:44:00,
2013-04-30 03:49:00,63.2,62.6,30.00,NNW,332,3.0,3.5,98,0.00,CLR,,0.00,WeatherDisplay:10.37,2013-04-30 07:49:00,
2013-04-30 03:54:00,63.2,62.6,30.00,NNW,332,3.0,3.5,98,0.00,CLR,,0.00,WeatherDisplay:10.37,2013-04-30 07:54:00,
2013-04-30 04:00:00,63.3,62.7,30.00,NNW,332,2.3,3.5,98,0.00,CLR,,0.00,WeatherDisplay:10.37,2013-04-30 08:00:00,
2013-04-30 04:05:00,63.3,62.7,30.00,NNW,332,2.0,5.0,98,0.00,CLR,,0.00,WeatherDisplay:10.37,2013-04-30 08:05:00,
2013-04-30 04:10:00,63.3,62.7,30.00,NNW,332,2.0,3.0,98,0.00,CLR,,0.00,WeatherDisplay:10.37,2013-04-30 08:10:00,
2013-04-30 04:15:00,63.3,62.7,30.00,NNW,332,1.0,4.0,98,0.00,CLR,,0.00,WeatherDisplay:10.37,2013-04-30 08:15:00,
2013-04-30 04:20:00,63.3,62.7,30.00,NNW,332,1.0,3.0,98,0.00,CLR,,0.00,WeatherDisplay:10.37,2013-04-30 08:20:00,
2013-04-30 04:25:00,63.3,62.7,30.00,NNW,332,0.1,1.1,98,0.00,CLR,,0.00,WeatherDisplay:10.37,2013-04-30 08:25:00,
2013-04-30 04:30:00,63.4,62.8,30.00,NNW,332,2.1,3.5,98,0.00,CLR,,0.00,WeatherDisplay:10.37,2013-04-30 08:30:00,
2013-04-30 04:35:00,63.4,62.8,30.01,NNW,332,2.0,3.5,98,0.00,CLR,,0.00,WeatherDisplay:10.37,2013-04-30 08:35:00,
2013-04-30 04:40:00,63.5,62.9,30.00,NNW,332,1.6,3.5,98,0.00,CLR,,0.00,WeatherDisplay:10.37,2013-04-30 08:40:00,
2013-04-30 04:45:00,63.5,62.9,30.00,NNW,343,2.0,3.5,98,0.00,CLR,,0.00,WeatherDisplay:10.37,2013-04-30 08:45:00,
2013-04-30 04:51:00,63.5,62.9,30.01,NNW,343,0.9,2.3,98,0.00,CLR,,0.00,WeatherDisplay:10.37,2013-04-30 08:51:00,
2013-04-30 04:56:00,63.5,62.9,30.01,NNW,343,0.0,1.1,98,0.00,CLR,,0.00,WeatherDisplay:10.37,2013-04-30 08:56:00,
2013-04-30 05:01:00,63.5,62.9,30.01,NNW,343,0.0,0.0,98,0.00,CLR,,0.00,WeatherDisplay:10.37,2013-04-30 09:01:00,
2013-04-30 05:06:00,63.5,62.9,30.01,NNW,343,1.9,3.5,98,0.00,CLR,,0.00,WeatherDisplay:10.37,2013-04-30 09:06:00,
2013-04-30 05:11:00,63.4,62.8,30.00,NNW,343,0.0,0.0,98,0.00,CLR,,0.00,WeatherDisplay:10.37,2013-04-30 09:11:00,
2013-04-30 05:16:00,63.4,62.8,30.01,NNW,343,1.2,1.2,98,0.00,CLR,,0.00,WeatherDisplay:10.37,2013-04-30 09:16:00,
2013-04-30 05:22:00,63.4,62.8,30.01,NNW,343,0.0,1.1,98,0.00,CLR,,0.00,WeatherDisplay:10.37,2013-04-30 09:22:00,
2013-04-30 05:27:00,63.4,62.8,30.01,NNW,343,0.0,0.0,98,0.00,CLR,,0.00,WeatherDisplay:10.37,2013-04-30 09:27:00,
2013-04-30 05:32:00,63.3,62.7,30.01,NNW,343,1.1,2.3,98,0.00,CLR,,0.00,WeatherDisplay:10.37,2013-04-30 09:32:00,
2013-04-30 05:37:00,63.3,62.7,30.01,NNW,343,0.0,0.0,98,0.00,CLR,,0.00,WeatherDisplay:10.37,2013-04-30 09:37:00,
2013-04-30 05:42:00,63.2,62.6,30.01,NNW,343,0.2,1.1,98,0.00,CLR,,0.00,WeatherDisplay:10.37,2013-04-30 09:42:00,
2013-04-30 05:47:00,63.2,62.6,30.01,NNW,343,0.0,1.1,98,0.00,CLR,,0.00,WeatherDisplay:10.37,2013-04-30 09:47:00,
2013-04-30 05:52:00,63.2,62.6,30.01,NNW,344,0.0,0.0,98,0.00,CLR,,0.00,WeatherDisplay:10.37,2013-04-30 09:52:00,
2013-04-30 05:57:00,63.1,62.5,30.02,NNW,344,0.0,0.0,98,0.00,CLR,,0.00,WeatherDisplay:10.37,2013-04-30 09:57:00,
2013-04-30 06:03:00,63.0,62.4,30.02,NNW,344,0.0,0.0,98,0.00,CLR,,0.00,WeatherDisplay:10.37,2013-04-30 10:03:00,
2013-04-30 06:08:00,62.8,62.2,30.02,NNW,344,0.0,1.1,98,0.00,CLR,,0.00,WeatherDisplay:10.37,2013-04-30 10:08:00,
2013-04-30 06:13:00,62.7,62.1,30.02,NNW,344,1.6,2.3,98,0.00,CLR,,0.00,WeatherDisplay:10.37,2013-04-30 10:13:00,
2013-04-30 06:18:00,62.7,62.1,30.02,NNW,344,1.5,3.0,98,0.00,CLR,,0.00,WeatherDisplay:10.37,2013-04-30 10:18:00,
2013-04-30 06:23:00,62.5,61.9,30.03,NNW,344,2.0,3.5,98,0.00,CLR,,0.00,WeatherDisplay:10.37,2013-04-30 10:23:00,
2013-04-30 06:29:00,62.4,61.8,30.03,NNW,344,1.5,2.3,98,0.00,CLR,,0.00,WeatherDisplay:10.37,2013-04-30 10:29:00,
2013-04-30 06:34:00,62.4,61.8,30.03,NNW,344,1.7,2.3,98,0.00,CLR,,0.00,WeatherDisplay:10.37,2013-04-30 10:34:00,
2013-04-30 06:39:00,62.3,61.7,30.03,NNW,344,1.1,2.3,98,0.00,CLR,,0.00,WeatherDisplay:10.37,2013-04-30 10:39:00,
2013-04-30 06:44:00,62.3,61.7,30.03,NNW,344,1.2,2.3,98,0.00,CLR,,0.00,WeatherDisplay:10.37,2013-04-30 10:44:00,
2013-04-30 06:50:00,62.4,61.8,30.03,NNW,344,1.0,3.0,98,0.00,CLR,,0.00,WeatherDisplay:10.37,2013-04-30 10:50:00,
2013-04-30 06:55:00,62.4,61.8,30.03,NNW,344,0.0,1.0,98,0.00,CLR,,0.00,WeatherDisplay:10.37,2013-04-30 10:55:00,
2013-04-30 07:00:00,62.5,61.9,30.04,NNW,344,0.0,2.0,98,0.00,CLR,,0.00,WeatherDisplay:10.37,2013-04-30 11:00:00,
2013-04-30 07:05:00,62.6,62.0,30.04,NNW,344,0.0,2.0,98,0.00,CLR,,0.00,WeatherDisplay:10.37,2013-04-30 11:05:00,
2013-04-30 07:10:00,62.7,62.1,30.04,NNW,344,2.0,3.0,98,0.00,CLR,,0.00,WeatherDisplay:10.37,2013-04-30 11:10:00,
2013-04-30 07:15:00,62.9,62.6,30.04,NNW,344,2.0,4.0,99,0.00,,,0.00,WeatherDisplay:10.37,2013-04-30 11:15:00,
2013-04-30 07:20:00,63.0,62.7,30.05,NNW,344,2.0,4.0,99,0.00,,,0.00,WeatherDisplay:10.37,2013-04-30 11:20:00,
2013-04-30 07:25:00,63.1,62.5,30.05,NNW,344,1.0,3.0,98,0.00,CLR,,0.00,WeatherDisplay:10.37,2013-04-30 11:25:00,
2013-04-30 07:30:00,63.2,62.6,30.05,NNW,344,2.0,4.0,98,0.00,CLR,,0.00,WeatherDisplay:10.37,2013-04-30 11:30:00,
2013-04-30 07:35:00,63.3,62.7,30.05,NNW,344,2.0,4.0,98,0.00,CLR,,0.00,WeatherDisplay:10.37,2013-04-30 11:35:00,
2013-04-30 07:40:00,63.4,62.8,30.05,NNW,344,2.0,4.0,98,0.00,CLR,,0.00,WeatherDisplay:10.37,2013-04-30 11:40:00,
2013-04-30 07:45:00,63.5,63.2,30.05,NNW,344,3.0,5.0,99,0.00,,,0.00,WeatherDisplay:10.37,2013-04-30 11:45:00,
2013-04-30 07:50:00,63.7,63.4,30.05,NNW,345,3.0,6.0,99,0.00,,,0.00,WeatherDisplay:10.37,2013-04-30 11:50:00,
2013-04-30 07:55:00,63.9,63.3,30.06,NNW,345,3.9,5.8,98,0.00,CLR,,0.00,WeatherDisplay:10.37,2013-04-30 11:55:00,
2013-04-30 08:00:00,63.9,63.3,30.06,NNW,346,3.1,4.6,98,0.00,CLR,,0.00,WeatherDisplay:10.37,2013-04-30 12:00:00,
2013-04-30 08:05:00,64.1,63.5,30.06,NNW,346,0.1,4.6,98,0.00,CLR,,0.00,WeatherDisplay:10.37,2013-04-30 12:05:00,
2013-04-30 08:10:00,64.2,63.6,30.06,North,360,4.6,5.8,98,0.00,CLR,,0.00,WeatherDisplay:10.37,2013-04-30 12:10:00,
2013-04-30 08:16:00,64.2,63.6,30.06,NNE,20,3.2,5.8,98,0.00,CLR,,0.00,WeatherDisplay:10.37,2013-04-30 12:16:00,
2013-04-30 08:21:00,64.3,63.7,30.07,NNE,22,2.7,4.6,98,0.00,CLR,,0.00,WeatherDisplay:10.37,2013-04-30 12:21:00,
2013-04-30 08:26:00,64.5,63.9,30.07,NE,34,1.5,3.5,98,0.00,CLR,,0.00,WeatherDisplay:10.37,2013-04-30 12:26:00,
2013-04-30 08:31:00,64.5,63.9,30.07,NNE,16,2.5,3.5,98,0.00,CLR,,0.00,WeatherDisplay:10.37,2013-04-30 12:31:00,
2013-04-30 08:36:00,64.5,63.9,30.08,NNE,31,0.6,3.5,98,0.00,CLR,,0.00,WeatherDisplay:10.37,2013-04-30 12:36:00,
2013-04-30 08:41:00,64.6,64.0,30.08,NNE,27,0.1,3.5,98,0.00,CLR,,0.00,WeatherDisplay:10.37,2013-04-30 12:41:00,
2013-04-30 08:46:00,64.6,64.0,30.08,NE,40,2.3,3.5,98,0.00,CLR,,0.00,WeatherDisplay:10.37,2013-04-30 12:46:00,
2013-04-30 08:52:00,64.7,64.1,30.08,NE,35,1.2,3.5,98,0.00,CLR,,0.00,WeatherDisplay:10.37,2013-04-30 12:52:00,
2013-04-30 08:57:00,65.0,64.1,30.07,NE,36,1.0,3.5,97,0.00,CLR,,0.00,WeatherDisplay:10.37,2013-04-30 12:57:00,
2013-04-30 09:02:00,65.3,64.4,30.07,NNE,32,2.1,4.6,97,0.00,CLR,,0.00,WeatherDisplay:10.37,2013-04-30 13:02:00,
2013-04-30 09:07:00,65.5,64.6,30.07,ENE,71,1.8,5.8,97,0.00,CLR,,0.00,WeatherDisplay:10.37,2013-04-30 13:07:00,
2013-04-30 09:12:00,65.6,64.4,30.07,ENE,58,2.9,4.6,96,0.00,CLR,,0.00,WeatherDisplay:10.37,2013-04-30 13:12:00,
2013-04-30 09:17:00,65.9,64.4,30.07,NNE,25,0.8,3.5,95,0.00,CLR,,0.00,WeatherDisplay:10.37,2013-04-30 13:17:00,
2013-04-30 09:22:00,66.2,64.7,30.07,NE,46,0.9,3.5,95,0.00,CLR,,0.00,WeatherDisplay:10.37,2013-04-30 13:22:00,
2013-04-30 09:28:00,66.6,64.8,30.07,NNE,21,3.2,4.0,94,0.00,CLR,,0.00,WeatherDisplay:10.37,2013-04-30 13:28:00,
2013-04-30 09:33:00,66.9,64.8,30.07,NNE,30,1.5,3.5,93,0.00,CLR,,0.00,WeatherDisplay:10.37,2013-04-30 13:33:00,
2013-04-30 09:38:00,67.0,64.6,30.07,NNE,28,1.3,3.5,92,0.00,CLR,,0.00,WeatherDisplay:10.37,2013-04-30 13:38:00,
2013-04-30 09:43:00,67.2,64.5,30.07,ENE,74,2.0,3.5,91,0.00,CLR,,0.00,WeatherDisplay:10.37,2013-04-30 13:43:00,
2013-04-30 09:48:00,67.3,64.6,30.07,NNE,28,2.5,3.5,91,0.00,CLR,,0.00,WeatherDisplay:10.37,2013-04-30 13:48:00,
2013-04-30 09:54:00,67.5,64.5,30.07,ENE,64,1.8,3.5,90,0.00,CLR,,0.00,WeatherDisplay:10.37,2013-04-30 13:54:00,
2013-04-30 09:59:00,67.7,65.0,30.07,NE,36,2.0,3.5,91,0.00,CLR,,0.00,WeatherDisplay:10.37,2013-04-30 13:59:00,
2013-04-30 10:04:00,68.0,65.0,30.07,ENE,69,1.1,3.5,90,0.00,CLR,,0.00,WeatherDisplay:10.37,2013-04-30 14:04:00,
2013-04-30 10:09:00,68.0,64.6,30.07,NNE,31,0.7,3.0,89,0.00,CLR,,0.00,WeatherDisplay:10.37,2013-04-30 14:09:00,
2013-04-30 10:14:00,68.2,64.8,30.07,ENE,71,2.9,3.5,89,0.00,CLR,,0.00,WeatherDisplay:10.37,2013-04-30 14:14:00,
2013-04-30 10:19:00,68.5,64.8,30.07,ENE,57,1.4,3.5,88,0.00,CLR,,0.00,WeatherDisplay:10.37,2013-04-30 14:19:00,
2013-04-30 10:24:00,68.7,65.0,30.07,NE,49,0.7,3.5,88,0.00,CLR,,0.00,WeatherDisplay:10.37,2013-04-30 14:24:00,
2013-04-30 10:29:00,69.1,65.4,30.07,ENE,61,1.4,3.5,88,0.00,CLR,,0.00,WeatherDisplay:10.37,2013-04-30 14:29:00,
2013-04-30 10:35:00,69.5,65.4,30.07,ENE,59,1.0,4.0,87,0.00,CLR,,0.00,WeatherDisplay:10.37,2013-04-30 14:35:00,
2013-04-30 10:40:00,69.8,65.5,30.07,ENE,74,1.0,5.0,86,0.00,CLR,,0.00,WeatherDisplay:10.37,2013-04-30 14:40:00,
2013-04-30 10:45:00,70.6,66.5,30.07,ENE,71,1.0,8.0,87,0.00,CLR,,0.00,WeatherDisplay:10.37,2013-04-30 14:45:00,
2013-04-30 10:50:00,71.3,65.8,30.07,NE,50,3.0,9.0,83,0.00,CLR,,0.00,WeatherDisplay:10.37,2013-04-30 14:50:00,
2013-04-30 10:55:00,71.8,65.7,30.07,NE,35,2.8,4.0,81,0.00,CLR,,0.00,WeatherDisplay:10.37,2013-04-30 14:55:00,
2013-04-30 11:00:00,72.3,65.4,30.07,East,82,3.6,5.8,79,0.00,CLR,,0.00,WeatherDisplay:10.37,2013-04-30 15:00:00,
2013-04-30 11:05:00,72.6,65.7,30.07,NE,55,1.5,3.5,79,0.00,CLR,,0.00,WeatherDisplay:10.37,2013-04-30 15:05:00,
2013-04-30 11:10:00,72.6,65.3,30.07,East,86,2.1,4.6,78,0.00,CLR,,0.00,WeatherDisplay:10.37,2013-04-30 15:10:00,
2013-04-30 11:16:00,72.4,64.8,30.07,NE,36,0.7,4.0,77,0.00,CLR,,0.00,WeatherDisplay:10.37,2013-04-30 15:16:00,
2013-04-30 11:21:00,72.2,65.3,30.07,ENE,63,2.4,3.5,79,0.00,CLR,,0.00,WeatherDisplay:10.37,2013-04-30 15:21:00,
2013-04-30 11:26:00,72.5,66.0,30.07,NE,40,1.0,3.5,80,0.00,CLR,,0.00,WeatherDisplay:10.37,2013-04-30 15:26:00,
2013-04-30 11:31:00,72.8,65.2,30.07,NE,53,3.1,5.8,77,0.00,CLR,,0.00,WeatherDisplay:10.37,2013-04-30 15:31:00,
2013-04-30 11:36:00,73.0,65.0,30.07,NNW,346,3.1,8.1,76,0.00,CLR,,0.00,WeatherDisplay:10.37,2013-04-30 15:36:00,
2013-04-30 11:41:00,73.3,65.7,30.07,East,82,2.3,12.7,77,0.00,CLR,,0.00,WeatherDisplay:10.37,2013-04-30 15:41:00,
2013-04-30 11:46:00,73.7,65.7,30.07,East,88,2.8,6.9,76,0.00,CLR,,0.00,WeatherDisplay:10.37,2013-04-30 15:46:00,
2013-04-30 11:51:00,74.1,66.0,30.07,NE,51,1.8,3.5,76,0.00,CLR,,0.00,WeatherDisplay:10.37,2013-04-30 15:51:00,
2013-04-30 11:56:00,74.6,65.8,30.07,East,80,3.6,8.1,74,0.00,CLR,,0.00,WeatherDisplay:10.37,2013-04-30 15:56:00,
2013-04-30 12:01:00,75.0,66.1,30.07,SE,126,5.0,9.2,74,0.00,CLR,,0.00,WeatherDisplay:10.37,2013-04-30 16:01:00,
2013-04-30 12:06:00,75.1,65.5,30.06,NE,53,5.4,11.5,72,0.00,CLR,,0.00,WeatherDisplay:10.37,2013-04-30 16:06:00,
2013-04-30 12:11:00,75.5,65.8,30.06,East,83,6.3,9.0,72,0.00,CLR,,0.00,WeatherDisplay:10.37,2013-04-30 16:11:00,
2013-04-30 12:16:00,75.8,65.3,30.06,NE,40,1.1,10.4,70,0.00,CLR,,0.00,WeatherDisplay:10.37,2013-04-30 16:16:00,
2013-04-30 12:21:00,76.2,66.9,30.06,North,349,2.2,5.8,73,0.00,CLR,,0.00,WeatherDisplay:10.37,2013-04-30 16:21:00,
2013-04-30 12:27:00,76.5,65.6,30.06,ESE,106,5.0,10.4,69,0.00,CLR,,0.00,WeatherDisplay:10.37,2013-04-30 16:27:00,
2013-04-30 12:32:00,76.3,64.5,30.06,ENE,57,0.9,3.5,67,0.00,CLR,,0.00,WeatherDisplay:10.37,2013-04-30 16:32:00,
2013-04-30 12:37:00,76.1,65.2,30.06,NE,42,1.5,5.8,69,0.00,CLR,,0.00,WeatherDisplay:10.37,2013-04-30 16:37:00,
2013-04-30 12:42:00,76.4,65.1,30.06,East,93,2.6,8.1,68,0.00,CLR,,0.00,WeatherDisplay:10.37,2013-04-30 16:42:00,
2013-04-30 12:48:00,76.7,66.2,30.06,ENE,60,2.5,8.1,70,0.00,CLR,,0.00,WeatherDisplay:10.37,2013-04-30 16:48:00,
2013-04-30 12:53:00,77.3,66.3,30.06,NE,44,1.9,3.5,69,0.00,CLR,,0.00,WeatherDisplay:10.37,2013-04-30 16:53:00,
2013-04-30 12:58:00,77.1,64.9,30.05,NNE,22,2.7,3.5,66,0.00,CLR,,0.00,WeatherDisplay:10.37,2013-04-30 16:58:00,
2013-04-30 13:03:00,76.9,66.0,30.05,NNE,31,1.3,3.5,69,0.00,CLR,,0.00,WeatherDisplay:10.37,2013-04-30 17:03:00,
2013-04-30 13:08:00,76.7,64.0,30.05,NE,44,1.9,3.5,65,0.00,CLR,,0.00,WeatherDisplay:10.37,2013-04-30 17:08:00,
2013-04-30 13:13:00,76.7,65.8,30.05,ENE,77,1.2,3.5,69,0.00,CLR,,0.00,WeatherDisplay:10.37,2013-04-30 17:13:00,
2013-04-30 13:18:00,77.2,65.8,30.05,East,99,1.1,3.5,68,0.00,CLR,,0.00,WeatherDisplay:10.37,2013-04-30 17:18:00,
2013-04-30 13:23:00,77.2,64.5,30.05,ENE,73,2.1,11.5,65,0.00,CLR,,0.00,WeatherDisplay:10.37,2013-04-30 17:23:00,
2013-04-30 13:28:00,76.5,64.3,30.05,SE,135,1.9,4.6,66,0.00,CLR,,0.00,WeatherDisplay:10.37,2013-04-30 17:28:00,
2013-04-30 13:33:00,76.0,64.2,30.04,East,84,6.4,10.4,67,0.00,CLR,,0.00,WeatherDisplay:10.37,2013-04-30 17:33:00,
2013-04-30 13:38:00,75.5,64.2,30.04,ENE,65,0.6,3.5,68,0.00,CLR,,0.00,WeatherDisplay:10.37,2013-04-30 17:38:00,
2013-04-30 13:44:00,75.6,64.3,30.04,ENE,63,1.1,3.5,68,0.00,CLR,,0.00,WeatherDisplay:10.37,2013-04-30 17:44:00,
2013-04-30 13:49:00,75.6,64.7,30.04,NE,49,1.1,3.5,69,0.00,CLR,,0.00,WeatherDisplay:10.37,2013-04-30 17:49:00,
2013-04-30 13:54:00,76.4,65.1,30.04,North,350,4.3,7.0,68,0.00,CLR,,0.00,WeatherDisplay:10.37,2013-04-30 17:54:00,
2013-04-30 13:59:00,76.6,64.4,30.05,NE,51,2.3,5.8,66,0.00,CLR,,0.00,WeatherDisplay:10.37,2013-04-30 17:59:00,
2013-04-30 14:04:00,76.2,64.0,30.05,NNE,23,2.3,5.8,66,0.00,CLR,,0.00,WeatherDisplay:10.37,2013-04-30 18:04:00,
2013-04-30 14:10:00,76.5,64.7,30.04,ESE,111,4.3,6.9,67,0.00,CLR,,0.00,WeatherDisplay:10.37,2013-04-30 18:10:00,
2013-04-30 14:15:00,76.5,64.3,30.04,East,84,2.0,8.0,66,0.00,CLR,,0.00,WeatherDisplay:10.37,2013-04-30 18:15:00,
2013-04-30 14:20:00,77.1,66.2,30.05,ENE,74,0.0,8.0,69,0.00,CLR,,0.00,WeatherDisplay:10.37,2013-04-30 18:20:00,
2013-04-30 14:25:00,77.3,65.9,30.04,East,87,2.0,9.0,68,0.00,CLR,,0.00,WeatherDisplay:10.37,2013-04-30 18:25:00,
2013-04-30 14:30:00,77.7,66.3,30.04,East,82,3.0,13.0,68,0.00,CLR,,0.00,WeatherDisplay:10.37,2013-04-30 18:30:00,
2013-04-30 14:35:00,77.8,65.5,30.04,ENE,78,3.0,7.0,66,0.00,CLR,,0.00,WeatherDisplay:10.37,2013-04-30 18:35:00,
2013-04-30 14:40:00,77.5,63.9,30.04,East,101,7.0,12.0,63,0.00,CLR,,0.00,WeatherDisplay:10.37,2013-04-30 18:40:00,
2013-04-30 14:45:00,77.3,65.5,30.04,East,89,1.0,7.0,67,0.00,CLR,,0.00,WeatherDisplay:10.37,2013-04-30 18:45:00,
2013-04-30 14:50:00,77.3,63.7,30.04,ENE,66,2.0,8.0,63,0.00,CLR,,0.00,WeatherDisplay:10.37,2013-04-30 18:50:00,
2013-04-30 14:55:00,77.3,66.3,30.04,East,86,2.0,9.0,69,0.00,CLR,,0.00,WeatherDisplay:10.37,2013-04-30 18:55:00,
2013-04-30 15:00:00,77.1,64.9,30.04,East,96,2.0,9.0,66,0.00,CLR,,0.00,WeatherDisplay:10.37,2013-04-30 19:00:00,
2013-04-30 15:05:00,76.9,65.1,30.04,ESE,109,6.0,13.0,67,0.00,CLR,,0.00,WeatherDisplay:10.37,2013-04-30 19:05:00,
2013-04-30 15:10:00,76.5,65.1,30.04,ESE,102,6.0,12.0,68,0.00,CLR,,0.00,WeatherDisplay:10.37,2013-04-30 19:10:00,
2013-04-30 15:15:00,76.1,64.3,30.04,ESE,113,9.4,12.7,67,0.00,CLR,,0.00,WeatherDisplay:10.37,2013-04-30 19:15:00,
2013-04-30 15:20:00,76.2,65.3,30.04,ESE,115,4.0,8.1,69,0.00,CLR,,0.00,WeatherDisplay:10.37,2013-04-30 19:20:00,
2013-04-30 15:25:00,76.5,64.3,30.04,ESE,106,8.2,11.5,66,0.00,CLR,,0.00,WeatherDisplay:10.37,2013-04-30 19:25:00,
2013-04-30 15:30:00,76.6,64.0,30.04,ESE,112,11.4,15.0,65,0.00,CLR,,0.00,WeatherDisplay:10.37,2013-04-30 19:30:00,
2013-04-30 15:35:00,76.4,65.1,30.04,East,94,8.8,10.4,68,0.00,CLR,,0.00,WeatherDisplay:10.37,2013-04-30 19:35:00,
2013-04-30 15:40:00,76.3,65.0,30.04,ESE,103,7.0,10.4,68,0.00,CLR,,0.00,WeatherDisplay:10.37,2013-04-30 19:40:00,
2013-04-30 15:46:00,76.3,65.0,30.04,East,95,8.1,11.5,68,0.00,CLR,,0.00,WeatherDisplay:10.37,2013-04-30 19:46:00,
2013-04-30 15:51:00,76.7,64.9,30.03,East,87,4.8,9.2,67,0.00,CLR,,0.00,WeatherDisplay:10.37,2013-04-30 19:51:00,
2013-04-30 15:56:00,77.1,65.3,30.03,East,94,6.7,10.4,67,0.00,CLR,,0.00,WeatherDisplay:10.37,2013-04-30 19:56:00,
2013-04-30 16:01:00,77.1,64.4,30.04,ESE,102,8.5,10.4,65,0.00,CLR,,0.00,WeatherDisplay:10.37,2013-04-30 20:01:00,
2013-04-30 16:06:00,76.4,63.8,30.04,ESE,115,6.8,12.7,65,0.00,CLR,,0.00,WeatherDisplay:10.37,2013-04-30 20:06:00,
2013-04-30 16:12:00,75.5,63.8,30.04,East,95,7.2,10.4,67,0.00,CLR,,0.00,WeatherDisplay:10.37,2013-04-30 20:12:00,
2013-04-30 16:17:00,74.5,63.7,30.04,East,90,4.9,12.7,69,0.00,CLR,,0.00,WeatherDisplay:10.37,2013-04-30 20:17:00,
2013-04-30 16:22:00,73.8,63.8,30.04,East,99,5.7,9.2,71,0.00,CLR,,0.00,WeatherDisplay:10.37,2013-04-30 20:22:00,
2013-04-30 16:27:00,73.5,63.9,30.04,ESE,115,7.1,9.2,72,0.00,CLR,,0.00,WeatherDisplay:10.37,2013-04-30 20:27:00,
2013-04-30 16:32:00,73.0,63.4,30.04,ENE,57,4.0,10.4,72,0.00,CLR,,0.00,WeatherDisplay:10.37,2013-04-30 20:32:00,
2013-04-30 16:37:00,72.6,63.4,30.04,East,84,3.2,8.1,73,0.00,CLR,,0.00,WeatherDisplay:10.37,2013-04-30 20:37:00,
2013-04-30 16:42:00,72.2,63.4,30.04,ESE,113,6.8,11.0,74,0.00,CLR,,0.00,WeatherDisplay:10.37,2013-04-30 20:42:00,
2013-04-30 16:48:00,71.9,63.5,30.04,East,90,4.4,6.9,75,0.00,CLR,,0.00,WeatherDisplay:10.37,2013-04-30 20:48:00,
2013-04-30 16:53:00,71.6,63.3,30.04,ESE,122,5.3,10.4,75,0.00,CLR,,0.00,WeatherDisplay:10.37,2013-04-30 20:53:00,
2013-04-30 16:58:00,71.5,63.5,30.04,East,96,5.1,8.1,76,0.00,CLR,,0.00,WeatherDisplay:10.37,2013-04-30 20:58:00,
2013-04-30 17:03:00,71.3,63.7,30.04,ENE,78,0.4,2.3,77,0.00,CLR,,0.00,WeatherDisplay:10.37,2013-04-30 21:03:00,
2013-04-30 17:08:00,71.4,63.4,30.04,ESE,105,4.6,6.9,76,0.00,CLR,,0.00,WeatherDisplay:10.37,2013-04-30 21:08:00,
2013-04-30 17:14:00,71.5,63.9,30.04,ESE,109,4.1,8.1,77,0.00,CLR,,0.00,WeatherDisplay:10.37,2013-04-30 21:14:00,
2013-04-30 17:19:00,71.4,64.2,30.04,East,96,4.5,8.1,78,0.00,CLR,,0.00,WeatherDisplay:10.37,2013-04-30 21:19:00,
2013-04-30 17:24:00,71.2,64.0,30.04,ESE,104,4.2,9.2,78,0.00,CLR,,0.00,WeatherDisplay:10.37,2013-04-30 21:24:00,
2013-04-30 17:29:00,70.7,63.5,30.05,ESE,117,8.6,10.4,78,0.00,CLR,,0.00,WeatherDisplay:10.37,2013-04-30 21:29:00,
2013-04-30 17:34:00,70.4,63.9,30.04,East,83,3.3,8.1,80,0.00,CLR,,0.00,WeatherDisplay:10.37,2013-04-30 21:34:00,
2013-04-30 17:40:00,70.6,64.1,30.05,East,91,7.2,9.2,80,0.00,CLR,,0.00,WeatherDisplay:10.37,2013-04-30 21:40:00,
2013-04-30 17:45:00,70.8,64.7,30.05,East,98,5.0,8.0,81,0.00,CLR,,0.00,WeatherDisplay:10.37,2013-04-30 21:45:00,
2013-04-30 17:50:00,70.9,64.4,30.05,East,95,7.0,9.0,80,0.00,CLR,,0.00,WeatherDisplay:10.37,2013-04-30 21:50:00,
2013-04-30 17:55:00,70.8,64.0,30.05,East,99,6.9,10.0,79,0.00,CLR,,0.00,WeatherDisplay:10.37,2013-04-30 21:55:00,
2013-04-30 18:00:00,70.5,64.0,30.05,East,92,5.3,10.4,80,0.00,CLR,,0.00,WeatherDisplay:10.37,2013-04-30 22:00:00,
2013-04-30 18:05:00,70.2,63.7,30.05,NE,52,7.7,10.4,80,0.00,CLR,,0.00,WeatherDisplay:10.37,2013-04-30 22:05:00,
2013-04-30 18:11:00,70.0,63.9,30.05,East,81,5.9,10.4,81,0.00,CLR,,0.00,WeatherDisplay:10.37,2013-04-30 22:11:00,
2013-04-30 18:16:00,69.9,64.2,30.05,ESE,119,7.0,10.4,82,0.00,CLR,,0.00,WeatherDisplay:10.37,2013-04-30 22:16:00,
2013-04-30 18:21:00,69.8,64.1,30.05,ENE,75,0.5,2.3,82,0.00,CLR,,0.00,WeatherDisplay:10.37,2013-04-30 22:21:00,
2013-04-30 18:26:00,69.8,64.1,30.05,ENE,69,5.5,10.4,82,0.00,CLR,,0.00,WeatherDisplay:10.37,2013-04-30 22:26:00,
2013-04-30 18:31:00,69.6,63.9,30.05,ESE,115,2.8,6.9,82,0.00,CLR,,0.00,WeatherDisplay:10.37,2013-04-30 22:31:00,
2013-04-30 18:36:00,69.6,63.9,30.05,East,98,5.2,8.1,82,0.00,CLR,,0.00,WeatherDisplay:10.37,2013-04-30 22:36:00,
2013-04-30 18:42:00,69.4,63.7,30.05,East,93,3.6,8.1,82,0.00,CLR,,0.00,WeatherDisplay:10.37,2013-04-30 22:42:00,
2013-04-30 18:47:00,69.0,63.6,30.05,East,92,0.2,1.1,83,0.00,CLR,,0.00,WeatherDisplay:10.37,2013-04-30 22:47:00,
2013-04-30 18:52:00,68.7,63.3,30.05,ESE,109,3.1,5.0,83,0.00,CLR,,0.00,WeatherDisplay:10.37,2013-04-30 22:52:00,
2013-04-30 18:57:00,68.5,63.5,30.06,East,89,0.4,5.8,84,0.00,CLR,,0.00,WeatherDisplay:10.37,2013-04-30 22:57:00,
2013-04-30 19:02:00,68.3,63.6,30.06,ESE,113,2.3,6.9,85,0.00,CLR,,0.00,WeatherDisplay:10.37,2013-04-30 23:02:00,
2013-04-30 19:08:00,68.3,63.6,30.06,East,97,0.0,1.1,85,0.00,CLR,,0.00,WeatherDisplay:10.37,2013-04-30 23:08:00,
2013-04-30 19:13:00,68.4,63.7,30.06,East,96,1.5,3.5,85,0.00,CLR,,0.00,WeatherDisplay:10.37,2013-04-30 23:13:00,
2013-04-30 19:18:00,68.5,63.8,30.06,East,94,0.1,2.3,85,0.00,CLR,,0.00,WeatherDisplay:10.37,2013-04-30 23:18:00,
2013-04-30 19:23:00,68.4,63.7,30.06,East,93,0.3,2.3,85,0.00,CLR,,0.00,WeatherDisplay:10.37,2013-04-30 23:23:00,
2013-04-30 19:28:00,68.2,63.2,30.07,NE,46,0.4,2.3,84,0.00,CLR,,0.00,WeatherDisplay:10.37,2013-04-30 23:28:00,
2013-04-30 19:33:00,67.9,63.2,30.07,ENE,59,1.3,8.1,85,0.00,CLR,,0.00,WeatherDisplay:10.37,2013-04-30 23:33:00,
2013-04-30 19:38:00,67.4,62.7,30.07,East,92,1.2,6.0,85,0.00,CLR,,0.00,WeatherDisplay:10.37,2013-04-30 23:38:00,
2013-04-30 19:44:00,67.0,62.7,30.07,ENE,75,2.3,4.6,86,0.00,CLR,,0.00,WeatherDisplay:10.37,2013-04-30 23:44:00,
2013-04-30 19:49:00,66.7,62.4,30.08,East,90,2.8,4.6,86,0.00,CLR,,0.00,WeatherDisplay:10.37,2013-04-30 23:49:00,
2013-04-30 19:54:00,66.3,62.3,30.08,East,79,1.2,4.6,87,0.00,CLR,,0.00,WeatherDisplay:10.37,2013-04-30 23:54:00,
2013-04-30 19:59:00,65.8,61.8,30.08,ENE,57,0.1,1.1,87,0.00,CLR,,0.00,WeatherDisplay:10.37,2013-04-30 23:59:00,
2013-04-30 20:04:00,65.5,61.9,30.08,ENE,63,0.0,1.1,88,0.00,CLR,,0.00,WeatherDisplay:10.37,2013-05-01 00:04:00,
2013-04-30 20:09:00,65.2,61.6,30.08,ENE,68,1.4,2.3,88,0.00,CLR,,0.00,WeatherDisplay:10.37,2013-05-01 00:09:00,
2013-04-30 20:14:00,64.9,61.3,30.08,ENE,69,0.4,3.5,88,0.00,CLR,,0.00,WeatherDisplay:10.37,2013-05-01 00:14:00,
2013-04-30 20:19:00,64.7,61.4,30.08,ENE,62,0.6,2.3,89,0.00,CLR,,0.00,WeatherDisplay:10.37,2013-05-01 00:19:00,
2013-04-30 20:24:00,64.5,61.2,30.08,ENE,57,0.3,1.1,89,0.00,CLR,,0.00,WeatherDisplay:10.37,2013-05-01 00:24:00,
2013-04-30 20:30:00,64.3,61.3,30.08,ENE,59,0.0,0.0,90,0.00,CLR,,0.00,WeatherDisplay:10.37,2013-05-01 00:30:00,
2013-04-30 20:35:00,64.1,61.1,30.08,ENE,59,0.0,3.0,90,0.00,CLR,,0.00,WeatherDisplay:10.37,2013-05-01 00:35:00,
2013-04-30 20:40:00,63.9,61.2,30.08,ENE,69,2.0,6.0,91,0.00,CLR,,0.00,WeatherDisplay:10.37,2013-05-01 00:40:00,
2013-04-30 20:45:00,63.7,61.0,30.08,ENE,75,0.0,2.0,91,0.00,CLR,,0.00,WeatherDisplay:10.37,2013-05-01 00:45:00,
2013-04-30 20:50:00,63.5,60.8,30.09,ENE,76,1.0,3.0,91,0.00,CLR,,0.00,WeatherDisplay:10.37,2013-05-01 00:50:00,
2013-04-30 20:55:00,63.3,60.6,30.09,ENE,74,0.0,0.0,91,0.00,CLR,,0.00,WeatherDisplay:10.37,2013-05-01 00:55:00,
2013-04-30 21:00:00,63.1,60.7,30.09,ENE,74,0.0,0.0,92,0.00,CLR,,0.00,WeatherDisplay:10.37,2013-05-01 01:00:00,
2013-04-30 21:05:00,63.0,60.6,30.09,ENE,74,0.0,1.1,92,0.00,CLR,,0.00,WeatherDisplay:10.37,2013-05-01 01:05:00,
2013-04-30 21:10:00,62.8,60.4,30.09,ENE,74,0.0,0.0,92,0.00,CLR,,0.00,WeatherDisplay:10.37,2013-05-01 01:10:00,
2013-04-30 21:15:00,62.6,60.2,30.09,ENE,74,0.0,0.0,92,0.00,CLR,,0.00,WeatherDisplay:10.37,2013-05-01 01:15:00,
2013-04-30 21:20:00,62.5,60.4,30.09,ENE,74,0.0,0.0,93,0.00,CLR,,0.00,WeatherDisplay:10.37,2013-05-01 01:20:00,
2013-04-30 21:26:00,62.3,60.2,30.10,ENE,74,0.0,0.0,93,0.00,CLR,,0.00,WeatherDisplay:10.37,2013-05-01 01:26:00,
2013-04-30 21:31:00,62.2,60.2,30.10,ENE,74,0.2,0.0,93,0.00,CLR,,0.00,WeatherDisplay:10.37,2013-05-01 01:31:00,
2013-04-30 21:36:00,62.1,60.1,30.10,ENE,74,0.0,0.0,93,0.00,CLR,,0.00,WeatherDisplay:10.37,2013-05-01 01:36:00,
2013-04-30 21:41:00,61.9,59.9,30.10,ENE,74,0.0,0.0,93,0.00,CLR,,0.00,WeatherDisplay:10.37,2013-05-01 01:41:00,
2013-04-30 21:46:00,61.8,60.1,30.11,ENE,74,0.0,0.0,94,0.00,CLR,,0.00,WeatherDisplay:10.37,2013-05-01 01:46:00,
2013-04-30 21:52:00,61.7,60.0,30.11,ENE,74,0.0,0.0,94,0.00,CLR,,0.00,WeatherDisplay:10.37,2013-05-01 01:52:00,
2013-04-30 21:57:00,61.6,59.9,30.11,ENE,74,0.0,1.1,94,0.00,CLR,,0.00,WeatherDisplay:10.37,2013-05-01 01:57:00,
2013-04-30 22:02:00,61.4,59.7,30.11,ENE,74,0.0,0.0,94,0.00,CLR,,0.00,WeatherDisplay:10.37,2013-05-01 02:02:00,
2013-04-30 22:07:00,61.3,59.6,30.11,ENE,74,0.3,1.0,94,0.00,CLR,,0.00,WeatherDisplay:10.37,2013-05-01 02:07:00,
2013-04-30 22:12:00,61.2,59.5,30.11,ENE,74,0.0,1.1,94,0.00,CLR,,0.00,WeatherDisplay:10.37,2013-05-01 02:12:00,
2013-04-30 22:17:00,61.1,59.4,30.12,ENE,74,0.0,0.0,94,0.00,CLR,,0.00,WeatherDisplay:10.37,2013-05-01 02:17:00,
2013-04-30 22:23:00,61.0,59.3,30.12,ENE,74,0.0,0.0,94,0.00,CLR,,0.00,WeatherDisplay:10.37,2013-05-01 02:23:00,
2013-04-30 22:28:00,60.8,59.1,30.12,ENE,74,0.0,0.0,94,0.00,CLR,,0.00,WeatherDisplay:10.37,2013-05-01 02:28:00,
2013-04-30 22:33:00,60.7,59.0,30.12,ENE,74,0.0,0.0,94,0.00,CLR,,0.00,WeatherDisplay:10.37,2013-05-01 02:33:00,
2013-04-30 22:38:00,60.6,58.9,30.12,ENE,74,0.0,0.0,94,0.00,CLR,,0.00,WeatherDisplay:10.37,2013-05-01 02:38:00,
2013-04-30 22:43:00,60.5,58.8,30.12,ENE,74,0.0,0.0,94,0.00,CLR,,0.00,WeatherDisplay:10.37,2013-05-01 02:43:00,
2013-04-30 22:48:00,60.3,58.9,30.12,ENE,74,0.0,0.0,95,0.00,CLR,,0.00,WeatherDisplay:10.37,2013-05-01 02:48:00,
2013-04-30 22:54:00,60.2,58.8,30.12,ENE,74,0.0,0.0,95,0.00,CLR,,0.00,WeatherDisplay:10.37,2013-05-01 02:54:00,
2013-04-30 22:59:00,60.1,58.7,30.12,ENE,74,0.0,0.0,95,0.00,CLR,,0.00,WeatherDisplay:10.37,2013-05-01 02:59:00,
2013-04-30 23:04:00,60.0,58.6,30.12,ENE,74,0.0,0.0,95,0.00,CLR,,0.00,WeatherDisplay:10.37,2013-05-01 03:04:00,
2013-04-30 23:09:00,59.9,58.5,30.11,ENE,74,0.0,0.0,95,0.00,CLR,,0.00,WeatherDisplay:10.37,2013-05-01 03:09:00,
2013-04-30 23:14:00,59.8,58.4,30.11,ENE,74,0.0,1.1,95,0.00,CLR,,0.00,WeatherDisplay:10.37,2013-05-01 03:14:00,
2013-04-30 23:19:00,59.7,58.3,30.11,ENE,74,0.0,0.0,95,0.00,CLR,,0.00,WeatherDisplay:10.37,2013-05-01 03:19:00,
2013-04-30 23:24:00,59.8,58.7,30.11,ENE,74,0.0,1.1,96,0.00,CLR,,0.00,WeatherDisplay:10.37,2013-05-01 03:24:00,
2013-04-30 23:29:00,59.7,58.6,30.11,ENE,74,0.0,1.1,96,0.00,CLR,,0.00,WeatherDisplay:10.37,2013-05-01 03:29:00,
2013-04-30 23:35:00,59.8,58.7,30.11,ENE,74,0.0,1.0,96,0.00,CLR,,0.00,WeatherDisplay:10.37,2013-05-01 03:35:00,
2013-04-30 23:40:00,59.9,58.8,30.11,ENE,74,0.0,2.0,96,0.00,CLR,,0.00,WeatherDisplay:10.37,2013-05-01 03:40:00,
2013-04-30 23:45:00,59.9,58.8,30.11,ENE,74,1.0,2.3,96,0.00,CLR,,0.00,WeatherDisplay:10.37,2013-05-01 03:45:00,
2013-04-30 23:50:00,59.9,58.8,30.10,ENE,74,0.4,1.1,96,0.00,CLR,,0.00,WeatherDisplay:10.37,2013-05-01 03:50:00,
2013-04-30 23:55:00,59.9,58.8,30.10,ENE,74,0.1,0.0,96,0.00,CLR,,0.00,WeatherDisplay:10.37,2013-05-01 03:55:00,